Year,Month,Day,Hour,Minute,Value (Times are PST for temperature in C)
2018,05,22,00,00,10.10
2018,05,22,00,01,10.10
2018,05,22,00,02,10.10
2018,05,22,00,03,10.10
2018,05,22,00,04,10.10
2018,05,22,00,05,10.10
2018,05,22,00,06,10.10
2018,05,22,00,07,10.10
2018,05,22,00,08,10.10
2018,05,22,00,09,10.10
2018,05,22,00,10,10.10
2018,05,22,00,11,10.10
2018,05,22,00,12,10.10
2018,05,22,00,13,10.10
2018,05,22,00,14,10.10
2018,05,22,00,15,10.10
2018,05,22,00,16,10.10
2018,05,22,00,17,10.10
2018,05,22,00,18,10.10
2018,05,22,00,19,10.10
2018,05,22,00,20,10.10
2018,05,22,00,21,10.10
2018,05,22,00,22,10.10
2018,05,22,00,23,10.10
2018,05,22,00,24,10.10
2018,05,22,00,25,10.10
2018,05,22,00,26,10.10
2018,05,22,00,27,10.10
2018,05,22,00,28,10.10
2018,05,22,00,29,10.20
2018,05,22,00,30,10.20
2018,05,22,00,31,10.20
2018,05,22,00,32,10.20
2018,05,22,00,33,10.20
2018,05,22,00,34,10.20
2018,05,22,00,35,10.20
2018,05,22,00,36,10.20
2018,05,22,00,37,10.20
2018,05,22,00,38,10.20
2018,05,22,00,39,10.20
2018,05,22,00,40,10.20
2018,05,22,00,41,10.20
2018,05,22,00,42,10.20
2018,05,22,00,43,10.20
2018,05,22,00,44,10.20
2018,05,22,00,45,10.10
2018,05,22,00,46,10.10
2018,05,22,00,47,10.10
2018,05,22,00,48,10.10
2018,05,22,00,49,10.10
2018,05,22,00,50,10.10
2018,05,22,00,51,10.10
2018,05,22,00,52,10.10
2018,05,22,00,53,10.10
2018,05,22,00,54,10.10
2018,05,22,00,55,10.10
2018,05,22,00,56,10.10
2018,05,22,00,57,10.10
2018,05,22,00,58,10.10
2018,05,22,00,59,10.10
2018,05,22,01,00,10.10
2018,05,22,01,01,10.10
2018,05,22,01,02,10.20
2018,05,22,01,03,10.20
2018,05,22,01,04,10.20
2018,05,22,01,05,10.20
2018,05,22,01,06,10.30
2018,05,22,01,07,10.30
2018,05,22,01,08,10.30
2018,05,22,01,09,10.30
2018,05,22,01,10,10.40
2018,05,22,01,11,10.40
2018,05,22,01,12,10.40
2018,05,22,01,13,10.40
2018,05,22,01,14,10.40
2018,05,22,01,15,10.40
2018,05,22,01,16,10.40
2018,05,22,01,17,10.40
2018,05,22,01,18,10.40
2018,05,22,01,19,10.40
2018,05,22,01,20,10.40
2018,05,22,01,21,10.40
2018,05,22,01,22,10.40
2018,05,22,01,23,10.40
2018,05,22,01,24,10.40
2018,05,22,01,25,10.40
2018,05,22,01,26,10.40
2018,05,22,01,27,10.40
2018,05,22,01,28,10.40
2018,05,22,01,29,10.40
2018,05,22,01,30,10.40
2018,05,22,01,31,10.40
2018,05,22,01,32,10.40
2018,05,22,01,33,10.40
2018,05,22,01,34,10.40
2018,05,22,01,35,10.40
2018,05,22,01,36,10.40
2018,05,22,01,37,10.40
2018,05,22,01,38,10.40
2018,05,22,01,39,10.40
2018,05,22,01,40,10.40
2018,05,22,01,41,10.40
2018,05,22,01,42,10.40
2018,05,22,01,43,10.40
2018,05,22,01,44,10.40
2018,05,22,01,45,10.40
2018,05,22,01,46,10.40
2018,05,22,01,47,10.40
2018,05,22,01,48,10.40
2018,05,22,01,49,10.40
2018,05,22,01,50,10.40
2018,05,22,01,51,10.40
2018,05,22,01,52,10.40
2018,05,22,01,53,10.40
2018,05,22,01,54,10.40
2018,05,22,01,55,10.40
2018,05,22,01,56,10.40
2018,05,22,01,57,10.40
2018,05,22,01,58,10.40
2018,05,22,01,59,10.40
2018,05,22,02,00,10.40
2018,05,22,02,01,10.40
2018,05,22,02,02,10.40
2018,05,22,02,03,10.40
2018,05,22,02,04,10.40
2018,05,22,02,05,10.40
2018,05,22,02,06,10.40
2018,05,22,02,07,10.40
2018,05,22,02,08,10.40
2018,05,22,02,09,10.30
2018,05,22,02,10,10.30
2018,05,22,02,11,10.30
2018,05,22,02,12,10.30
2018,05,22,02,13,10.30
2018,05,22,02,14,10.30
2018,05,22,02,15,10.30
2018,05,22,02,16,10.30
2018,05,22,02,17,10.30
2018,05,22,02,18,10.30
2018,05,22,02,19,10.30
2018,05,22,02,20,10.30
2018,05,22,02,21,10.30
2018,05,22,02,22,10.30
2018,05,22,02,23,10.30
2018,05,22,02,24,10.30
2018,05,22,02,25,10.30
2018,05,22,02,26,10.30
2018,05,22,02,27,10.30
2018,05,22,02,28,10.30
2018,05,22,02,29,10.30
2018,05,22,02,30,10.30
2018,05,22,02,31,10.30
2018,05,22,02,32,10.30
2018,05,22,02,33,10.30
2018,05,22,02,34,10.30
2018,05,22,02,35,10.30
2018,05,22,02,36,10.40
2018,05,22,02,37,10.40
2018,05,22,02,38,10.40
2018,05,22,02,39,10.40
2018,05,22,02,40,10.40
2018,05,22,02,41,10.40
2018,05,22,02,42,10.40
2018,05,22,02,43,10.40
2018,05,22,02,44,10.40
2018,05,22,02,45,10.40
2018,05,22,02,46,10.40
2018,05,22,02,47,10.40
2018,05,22,02,48,10.40
2018,05,22,02,49,10.40
2018,05,22,02,50,10.40
2018,05,22,02,51,10.40
2018,05,22,02,52,10.40
2018,05,22,02,53,10.40
2018,05,22,02,54,10.40
2018,05,22,02,55,10.30
2018,05,22,02,56,10.30
2018,05,22,02,57,10.30
2018,05,22,02,58,10.30
2018,05,22,02,59,10.30
2018,05,22,03,00,10.30
2018,05,22,03,01,10.30
2018,05,22,03,02,10.30
2018,05,22,03,03,10.30
2018,05,22,03,04,10.30
2018,05,22,03,05,10.30
2018,05,22,03,06,10.20
2018,05,22,03,07,10.20
2018,05,22,03,08,10.20
2018,05,22,03,09,10.20
2018,05,22,03,10,10.20
2018,05,22,03,11,10.20
2018,05,22,03,12,10.20
2018,05,22,03,13,10.20
2018,05,22,03,14,10.20
2018,05,22,03,15,10.20
2018,05,22,03,16,10.20
2018,05,22,03,17,10.20
2018,05,22,03,18,10.20
2018,05,22,03,19,10.20
2018,05,22,03,20,10.20
2018,05,22,03,21,10.20
2018,05,22,03,22,10.20
2018,05,22,03,23,10.20
2018,05,22,03,24,10.20
2018,05,22,03,25,10.20
2018,05,22,03,26,10.20
2018,05,22,03,27,10.20
2018,05,22,03,28,10.20
2018,05,22,03,29,10.20
2018,05,22,03,30,10.20
2018,05,22,03,31,10.20
2018,05,22,03,32,10.20
2018,05,22,03,33,10.20
2018,05,22,03,34,10.10
2018,05,22,03,35,10.10
2018,05,22,03,36,10.10
2018,05,22,03,37,10.10
2018,05,22,03,38,10.10
2018,05,22,03,39,10.10
2018,05,22,03,40,10.10
2018,05,22,03,41,10.10
2018,05,22,03,42,10.10
2018,05,22,03,43,10.20
2018,05,22,03,44,10.20
2018,05,22,03,45,10.20
2018,05,22,03,46,10.20
2018,05,22,03,47,10.30
2018,05,22,03,48,10.30
2018,05,22,03,49,10.30
2018,05,22,03,50,10.30
2018,05,22,03,51,10.30
2018,05,22,03,52,10.30
2018,05,22,03,53,10.30
2018,05,22,03,54,10.30
2018,05,22,03,55,10.30
2018,05,22,03,56,10.40
2018,05,22,03,57,10.40
2018,05,22,03,58,10.40
2018,05,22,03,59,10.40
2018,05,22,04,00,10.40
2018,05,22,04,01,10.40
2018,05,22,04,02,10.40
2018,05,22,04,03,10.40
2018,05,22,04,04,10.40
2018,05,22,04,05,10.40
2018,05,22,04,06,10.40
2018,05,22,04,07,10.40
2018,05,22,04,08,10.40
2018,05,22,04,09,10.40
2018,05,22,04,10,10.40
2018,05,22,04,11,10.40
2018,05,22,04,12,10.40
2018,05,22,04,13,10.40
2018,05,22,04,14,10.30
2018,05,22,04,15,10.30
2018,05,22,04,16,10.30
2018,05,22,04,17,10.30
2018,05,22,04,18,10.30
2018,05,22,04,19,10.20
2018,05,22,04,20,10.20
2018,05,22,04,21,10.20
2018,05,22,04,22,10.20
2018,05,22,04,23,10.20
2018,05,22,04,24,10.20
2018,05,22,04,25,10.20
2018,05,22,04,26,10.20
2018,05,22,04,27,10.20
2018,05,22,04,28,10.20
2018,05,22,04,29,10.20
2018,05,22,04,30,10.20
2018,05,22,04,31,10.20
2018,05,22,04,32,10.20
2018,05,22,04,33,10.20
2018,05,22,04,34,10.20
2018,05,22,04,35,10.20
2018,05,22,04,36,10.20
2018,05,22,04,37,10.20
2018,05,22,04,38,10.20
2018,05,22,04,39,10.10
2018,05,22,04,40,10.10
2018,05,22,04,41,10.10
2018,05,22,04,42,10.10
2018,05,22,04,43,10.10
2018,05,22,04,44,9.90
2018,05,22,04,45,9.90
2018,05,22,04,46,9.90
2018,05,22,04,47,9.80
2018,05,22,04,48,9.70
2018,05,22,04,49,9.70
2018,05,22,04,50,9.70
2018,05,22,04,51,9.60
2018,05,22,04,52,9.60
2018,05,22,04,53,9.50
2018,05,22,04,54,9.50
2018,05,22,04,55,9.40
2018,05,22,04,56,9.40
2018,05,22,04,57,9.40
2018,05,22,04,58,9.30
2018,05,22,04,59,9.30
2018,05,22,05,00,9.30
2018,05,22,05,01,9.20
2018,05,22,05,02,9.20
2018,05,22,05,03,9.20
2018,05,22,05,04,9.20
2018,05,22,05,05,9.20
2018,05,22,05,06,9.20
2018,05,22,05,07,9.20
2018,05,22,05,08,9.20
2018,05,22,05,09,9.20
2018,05,22,05,10,9.10
2018,05,22,05,11,9.10
2018,05,22,05,12,9.10
2018,05,22,05,13,9.10
2018,05,22,05,14,9.10
2018,05,22,05,15,9.10
2018,05,22,05,16,9.00
2018,05,22,05,17,9.00
2018,05,22,05,18,9.00
2018,05,22,05,19,9.00
2018,05,22,05,20,9.00
2018,05,22,05,21,9.00
2018,05,22,05,22,9.00
2018,05,22,05,23,8.90
2018,05,22,05,24,8.90
2018,05,22,05,25,8.90
2018,05,22,05,26,8.90
2018,05,22,05,27,8.90
2018,05,22,05,28,8.90
2018,05,22,05,29,8.90
2018,05,22,05,30,8.90
2018,05,22,05,31,8.90
2018,05,22,05,32,8.90
2018,05,22,05,33,8.90
2018,05,22,05,34,8.90
2018,05,22,05,35,8.90
2018,05,22,05,36,8.90
2018,05,22,05,37,8.90
2018,05,22,05,38,8.90
2018,05,22,05,39,8.90
2018,05,22,05,40,8.90
2018,05,22,05,41,8.90
2018,05,22,05,42,8.90
2018,05,22,05,43,8.90
2018,05,22,05,44,8.90
2018,05,22,05,45,8.90
2018,05,22,05,46,8.90
2018,05,22,05,47,8.90
2018,05,22,05,48,8.90
2018,05,22,05,49,8.90
2018,05,22,05,50,8.90
2018,05,22,05,51,8.90
2018,05,22,05,52,9.00
2018,05,22,05,53,9.00
2018,05,22,05,54,9.00
2018,05,22,05,55,9.00
2018,05,22,05,56,9.10
2018,05,22,05,57,9.10
2018,05,22,05,58,9.20
2018,05,22,05,59,9.20
2018,05,22,06,00,9.20
2018,05,22,06,01,9.20
2018,05,22,06,02,9.20
2018,05,22,06,03,9.20
2018,05,22,06,04,9.20
2018,05,22,06,05,9.20
2018,05,22,06,06,9.20
2018,05,22,06,07,9.20
2018,05,22,06,08,9.20
2018,05,22,06,09,9.30
2018,05,22,06,10,9.30
2018,05,22,06,11,9.40
2018,05,22,06,12,9.40
2018,05,22,06,13,9.40
2018,05,22,06,14,9.40
2018,05,22,06,15,9.40
2018,05,22,06,16,9.40
2018,05,22,06,17,9.40
2018,05,22,06,18,9.30
2018,05,22,06,19,9.30
2018,05,22,06,20,9.30
2018,05,22,06,21,9.30
2018,05,22,06,22,9.30
2018,05,22,06,23,9.30
2018,05,22,06,24,9.30
2018,05,22,06,25,9.30
2018,05,22,06,26,9.30
2018,05,22,06,27,9.40
2018,05,22,06,28,9.30
2018,05,22,06,29,9.30
2018,05,22,06,30,9.30
2018,05,22,06,31,9.30
2018,05,22,06,32,9.40
2018,05,22,06,33,9.40
2018,05,22,06,34,9.40
2018,05,22,06,35,9.40
2018,05,22,06,36,9.40
2018,05,22,06,37,9.40
2018,05,22,06,38,9.50
2018,05,22,06,39,9.50
2018,05,22,06,40,9.50
2018,05,22,06,41,9.50
2018,05,22,06,42,9.60
2018,05,22,06,43,9.60
2018,05,22,06,44,9.60
2018,05,22,06,45,9.70
2018,05,22,06,46,9.70
2018,05,22,06,47,9.70
2018,05,22,06,48,9.70
2018,05,22,06,49,9.70
2018,05,22,06,50,9.80
2018,05,22,06,51,9.80
2018,05,22,06,52,9.90
2018,05,22,06,53,9.90
2018,05,22,06,54,9.90
2018,05,22,06,55,10.10
2018,05,22,06,56,10.10
2018,05,22,06,57,10.20
2018,05,22,06,58,10.30
2018,05,22,06,59,10.40
2018,05,22,07,00,10.40
2018,05,22,07,01,10.50
2018,05,22,07,02,10.60
2018,05,22,07,03,10.60
2018,05,22,07,04,10.60
2018,05,22,07,05,10.60
2018,05,22,07,06,10.60
2018,05,22,07,07,10.70
2018,05,22,07,08,10.70
2018,05,22,07,09,10.70
2018,05,22,07,10,10.70
2018,05,22,07,11,10.80
2018,05,22,07,12,10.80
2018,05,22,07,13,10.90
2018,05,22,07,14,10.90
2018,05,22,07,15,10.90
2018,05,22,07,16,11.10
2018,05,22,07,17,11.10
2018,05,22,07,18,11.10
2018,05,22,07,19,11.20
2018,05,22,07,20,11.20
2018,05,22,07,21,11.30
2018,05,22,07,22,11.40
2018,05,22,07,23,11.40
2018,05,22,07,24,11.50
2018,05,22,07,25,11.60
2018,05,22,07,26,11.70
2018,05,22,07,27,11.70
2018,05,22,07,28,11.80
2018,05,22,07,29,11.80
2018,05,22,07,30,11.90
2018,05,22,07,31,11.90
2018,05,22,07,32,12.00
2018,05,22,07,33,12.00
2018,05,22,07,34,12.10
2018,05,22,07,35,12.10
2018,05,22,07,36,12.10
2018,05,22,07,37,12.10
2018,05,22,07,38,12.20
2018,05,22,07,39,12.20
2018,05,22,07,40,12.20
2018,05,22,07,41,12.30
2018,05,22,07,42,12.30
2018,05,22,07,43,12.30
2018,05,22,07,44,12.30
2018,05,22,07,45,12.30
2018,05,22,07,46,12.40
2018,05,22,07,47,12.40
2018,05,22,07,48,12.40
2018,05,22,07,49,12.40
2018,05,22,07,50,12.50
2018,05,22,07,51,12.50
2018,05,22,07,52,12.50
2018,05,22,07,53,12.50
2018,05,22,07,54,12.60
2018,05,22,07,55,12.60
2018,05,22,07,56,12.60
2018,05,22,07,57,12.60
2018,05,22,07,58,12.70
2018,05,22,07,59,12.70
2018,05,22,08,00,12.70
2018,05,22,08,01,12.80
2018,05,22,08,02,12.80
2018,05,22,08,03,12.80
2018,05,22,08,04,12.90
2018,05,22,08,05,13.00
2018,05,22,08,06,13.00
2018,05,22,08,07,13.10
2018,05,22,08,08,13.20
2018,05,22,08,09,13.30
2018,05,22,08,10,13.30
2018,05,22,08,11,13.30
2018,05,22,08,12,13.40
2018,05,22,08,13,13.40
2018,05,22,08,14,13.50
2018,05,22,08,15,13.50
2018,05,22,08,16,13.60
2018,05,22,08,17,13.70
2018,05,22,08,18,13.70
2018,05,22,08,19,13.80
2018,05,22,08,20,14.00
2018,05,22,08,21,14.10
2018,05,22,08,22,14.20
2018,05,22,08,23,14.30
2018,05,22,08,24,14.40
2018,05,22,08,25,14.60
2018,05,22,08,26,14.60
2018,05,22,08,27,14.80
2018,05,22,08,28,14.90
2018,05,22,08,29,15.00
2018,05,22,08,30,15.10
2018,05,22,08,31,15.20
2018,05,22,08,32,15.30
2018,05,22,08,33,15.40
2018,05,22,08,34,15.50
2018,05,22,08,35,15.50
2018,05,22,08,36,15.60
2018,05,22,08,37,15.70
2018,05,22,08,38,15.70
2018,05,22,08,39,15.80
2018,05,22,08,40,15.80
2018,05,22,08,41,15.80
2018,05,22,08,42,15.90
2018,05,22,08,43,16.00
2018,05,22,08,44,16.10
2018,05,22,08,45,16.10
2018,05,22,08,46,16.20
2018,05,22,08,47,16.30
2018,05,22,08,48,16.40
2018,05,22,08,49,16.40
2018,05,22,08,50,16.40
2018,05,22,08,51,16.40
2018,05,22,08,52,16.40
2018,05,22,08,53,16.40
2018,05,22,08,54,16.50
2018,05,22,08,55,16.50
2018,05,22,08,56,16.40
2018,05,22,08,57,16.40
2018,05,22,08,58,16.50
2018,05,22,08,59,16.60
2018,05,22,09,00,16.60
2018,05,22,09,01,16.70
2018,05,22,09,02,16.70
2018,05,22,09,03,16.70
2018,05,22,09,04,16.80
2018,05,22,09,05,16.90
2018,05,22,09,06,16.90
2018,05,22,09,07,17.00
2018,05,22,09,08,17.00
2018,05,22,09,09,17.00
2018,05,22,09,10,17.10
2018,05,22,09,11,17.20
2018,05,22,09,12,17.20
2018,05,22,09,13,17.30
2018,05,22,09,14,17.40
2018,05,22,09,15,17.40
2018,05,22,09,16,17.50
2018,05,22,09,17,17.50
2018,05,22,09,18,17.50
2018,05,22,09,19,17.50
2018,05,22,09,20,17.50
2018,05,22,09,21,17.50
2018,05,22,09,22,17.50
2018,05,22,09,23,17.60
2018,05,22,09,24,17.50
2018,05,22,09,25,17.60
2018,05,22,09,26,17.60
2018,05,22,09,27,17.50
2018,05,22,09,28,17.50
2018,05,22,09,29,17.60
2018,05,22,09,30,17.60
2018,05,22,09,31,17.70
2018,05,22,09,32,17.80
2018,05,22,09,33,17.90
2018,05,22,09,34,18.00
2018,05,22,09,35,18.10
2018,05,22,09,36,18.20
2018,05,22,09,37,18.20
2018,05,22,09,38,18.30
2018,05,22,09,39,18.40
2018,05,22,09,40,18.40
2018,05,22,09,41,18.40
2018,05,22,09,42,18.50
2018,05,22,09,43,18.50
2018,05,22,09,44,18.50
2018,05,22,09,45,18.60
2018,05,22,09,46,18.60
2018,05,22,09,47,18.60
2018,05,22,09,48,18.60
2018,05,22,09,49,18.60
2018,05,22,09,50,18.70
2018,05,22,09,51,18.70
2018,05,22,09,52,18.70
2018,05,22,09,53,18.70
2018,05,22,09,54,18.80
2018,05,22,09,55,18.80
2018,05,22,09,56,18.90
2018,05,22,09,57,18.90
2018,05,22,09,58,18.90
2018,05,22,09,59,19.00
2018,05,22,10,00,19.10
2018,05,22,10,01,19.10
2018,05,22,10,02,19.10
2018,05,22,10,03,19.20
2018,05,22,10,04,19.20
2018,05,22,10,05,19.10
2018,05,22,10,06,19.00
2018,05,22,10,07,18.90
2018,05,22,10,08,18.90
2018,05,22,10,09,18.90
2018,05,22,10,10,18.90
2018,05,22,10,11,19.00
2018,05,22,10,12,19.10
2018,05,22,10,13,19.10
2018,05,22,10,14,19.20
2018,05,22,10,15,19.30
2018,05,22,10,16,19.30
2018,05,22,10,17,19.40
2018,05,22,10,18,19.40
2018,05,22,10,19,19.50
2018,05,22,10,20,19.50
2018,05,22,10,21,19.50
2018,05,22,10,22,19.60
2018,05,22,10,23,19.60
2018,05,22,10,24,19.70
2018,05,22,10,25,19.70
2018,05,22,10,26,19.80
2018,05,22,10,27,19.90
2018,05,22,10,28,19.90
2018,05,22,10,29,19.90
2018,05,22,10,30,20.00
2018,05,22,10,31,20.00
2018,05,22,10,32,20.10
2018,05,22,10,33,20.00
2018,05,22,10,34,20.10
2018,05,22,10,35,20.00
2018,05,22,10,36,19.90
2018,05,22,10,37,19.90
2018,05,22,10,38,19.90
2018,05,22,10,39,19.90
2018,05,22,10,40,19.90
2018,05,22,10,41,19.90
2018,05,22,10,42,19.90
2018,05,22,10,43,19.90
2018,05,22,10,44,19.80
2018,05,22,10,45,19.80
2018,05,22,10,46,19.80
2018,05,22,10,47,19.90
2018,05,22,10,48,19.90
2018,05,22,10,49,19.90
2018,05,22,10,50,20.00
2018,05,22,10,51,20.10
2018,05,22,10,52,20.00
2018,05,22,10,53,19.90
2018,05,22,10,54,20.00
2018,05,22,10,55,20.10
2018,05,22,10,56,20.10
2018,05,22,10,57,20.20
2018,05,22,10,58,20.20
2018,05,22,10,59,20.30
2018,05,22,11,00,20.40
2018,05,22,11,01,20.50
2018,05,22,11,02,20.50
2018,05,22,11,03,20.50
2018,05,22,11,04,20.60
2018,05,22,11,05,20.60
2018,05,22,11,06,20.50
2018,05,22,11,07,20.30
2018,05,22,11,08,20.30
2018,05,22,11,09,20.20
2018,05,22,11,10,20.20
2018,05,22,11,11,20.20
2018,05,22,11,12,20.20
2018,05,22,11,13,20.20
2018,05,22,11,14,20.20
2018,05,22,11,15,20.20
2018,05,22,11,16,20.30
2018,05,22,11,17,20.40
2018,05,22,11,18,20.40
2018,05,22,11,19,20.50
2018,05,22,11,20,20.60
2018,05,22,11,21,20.70
2018,05,22,11,22,20.70
2018,05,22,11,23,20.70
2018,05,22,11,24,20.80
2018,05,22,11,25,20.80
2018,05,22,11,26,20.90
2018,05,22,11,27,20.90
2018,05,22,11,28,20.90
2018,05,22,11,29,20.90
2018,05,22,11,30,20.90
2018,05,22,11,31,21.00
2018,05,22,11,32,20.90
2018,05,22,11,33,20.90
2018,05,22,11,34,20.80
2018,05,22,11,35,20.80
2018,05,22,11,36,20.70
2018,05,22,11,37,20.70
2018,05,22,11,38,20.70
2018,05,22,11,39,20.70
2018,05,22,11,40,20.70
2018,05,22,11,41,20.80
2018,05,22,11,42,20.80
2018,05,22,11,43,20.80
2018,05,22,11,44,20.90
2018,05,22,11,45,21.00
2018,05,22,11,46,21.00
2018,05,22,11,47,21.10
2018,05,22,11,48,21.10
2018,05,22,11,49,21.10
2018,05,22,11,50,21.00
2018,05,22,11,51,21.00
2018,05,22,11,52,21.10
2018,05,22,11,53,21.10
2018,05,22,11,54,21.20
2018,05,22,11,55,21.30
2018,05,22,11,56,21.30
2018,05,22,11,57,21.30
2018,05,22,11,58,21.30
2018,05,22,11,59,21.30
2018,05,22,12,00,21.30
2018,05,22,12,01,21.40
2018,05,22,12,02,21.50
2018,05,22,12,03,21.60
2018,05,22,12,04,21.60
2018,05,22,12,05,21.60
2018,05,22,12,06,21.70
2018,05,22,12,07,21.80
2018,05,22,12,08,21.80
2018,05,22,12,09,21.80
2018,05,22,12,10,21.70
2018,05,22,12,11,21.80
2018,05,22,12,12,21.90
2018,05,22,12,13,21.90
2018,05,22,12,14,22.00
2018,05,22,12,15,22.10
2018,05,22,12,16,22.20
2018,05,22,12,17,22.20
2018,05,22,12,18,22.20
2018,05,22,12,19,22.20
2018,05,22,12,20,22.10
2018,05,22,12,21,22.10
2018,05,22,12,22,22.10
2018,05,22,12,23,22.10
2018,05,22,12,24,22.20
2018,05,22,12,25,22.20
2018,05,22,12,26,22.20
2018,05,22,12,27,22.20
2018,05,22,12,28,22.20
2018,05,22,12,29,22.20
2018,05,22,12,30,22.30
2018,05,22,12,31,22.40
2018,05,22,12,32,22.40
2018,05,22,12,33,22.50
2018,05,22,12,34,22.50
2018,05,22,12,35,22.60
2018,05,22,12,36,22.60
2018,05,22,12,37,22.70
2018,05,22,12,38,22.70
2018,05,22,12,39,22.60
2018,05,22,12,40,22.60
2018,05,22,12,41,22.70
2018,05,22,12,42,22.60
2018,05,22,12,43,22.50
2018,05,22,12,44,22.40
2018,05,22,12,45,22.40
2018,05,22,12,46,22.40
2018,05,22,12,47,22.50
2018,05,22,12,48,22.40
2018,05,22,12,49,22.30
2018,05,22,12,50,22.30
2018,05,22,12,51,22.40
2018,05,22,12,52,22.30
2018,05,22,12,53,22.30
2018,05,22,12,54,22.20
2018,05,22,12,55,22.10
2018,05,22,12,56,22.00
2018,05,22,12,57,21.80
2018,05,22,12,58,21.60
2018,05,22,12,59,21.60
2018,05,22,13,00,21.70
2018,05,22,13,01,21.90
2018,05,22,13,02,22.00
2018,05,22,13,03,22.10
2018,05,22,13,04,22.30
2018,05,22,13,05,22.40
2018,05,22,13,06,22.60
2018,05,22,13,07,22.60
2018,05,22,13,08,22.50
2018,05,22,13,09,22.40
2018,05,22,13,10,22.40
2018,05,22,13,11,22.50
2018,05,22,13,12,22.60
2018,05,22,13,13,22.60
2018,05,22,13,14,22.70
2018,05,22,13,15,22.70
2018,05,22,13,16,22.80
2018,05,22,13,17,22.70
2018,05,22,13,18,22.70
2018,05,22,13,19,22.70
2018,05,22,13,20,22.70
2018,05,22,13,21,22.70
2018,05,22,13,22,22.80
2018,05,22,13,23,22.70
2018,05,22,13,24,22.60
2018,05,22,13,25,22.60
2018,05,22,13,26,22.60
2018,05,22,13,27,22.60
2018,05,22,13,28,22.60
2018,05,22,13,29,22.60
2018,05,22,13,30,22.50
2018,05,22,13,31,22.50
2018,05,22,13,32,22.50
2018,05,22,13,33,22.30
2018,05,22,13,34,22.30
2018,05,22,13,35,22.30
2018,05,22,13,36,22.30
2018,05,22,13,37,22.30
2018,05,22,13,38,22.50
2018,05,22,13,39,22.60
2018,05,22,13,40,22.70
2018,05,22,13,41,22.90
2018,05,22,13,42,23.00
2018,05,22,13,43,23.10
2018,05,22,13,44,23.30
2018,05,22,13,45,23.40
2018,05,22,13,46,23.50
2018,05,22,13,47,23.60
2018,05,22,13,48,23.70
2018,05,22,13,49,23.70
2018,05,22,13,50,23.80
2018,05,22,13,51,23.80
2018,05,22,13,52,23.90
2018,05,22,13,53,23.90
2018,05,22,13,54,23.90
2018,05,22,13,55,23.90
2018,05,22,13,56,23.80
2018,05,22,13,57,23.80
2018,05,22,13,58,23.80
2018,05,22,13,59,23.80
2018,05,22,14,00,23.80
2018,05,22,14,01,23.90
2018,05,22,14,02,23.90
2018,05,22,14,03,24.00
2018,05,22,14,04,24.10
2018,05,22,14,05,24.10
2018,05,22,14,06,24.10
2018,05,22,14,07,24.10
2018,05,22,14,08,24.10
2018,05,22,14,09,24.10
2018,05,22,14,10,24.10
2018,05,22,14,11,24.10
2018,05,22,14,12,24.10
2018,05,22,14,13,24.00
2018,05,22,14,14,23.90
2018,05,22,14,15,23.90
2018,05,22,14,16,23.90
2018,05,22,14,17,23.90
2018,05,22,14,18,23.90
2018,05,22,14,19,23.90
2018,05,22,14,20,23.90
2018,05,22,14,21,24.00
2018,05,22,14,22,24.10
2018,05,22,14,23,24.10
2018,05,22,14,24,24.10
2018,05,22,14,25,24.10
2018,05,22,14,26,24.10
2018,05,22,14,27,24.10
2018,05,22,14,28,24.10
2018,05,22,14,29,24.10
2018,05,22,14,30,24.10
2018,05,22,14,31,24.10
2018,05,22,14,32,24.10
2018,05,22,14,33,24.10
2018,05,22,14,34,24.10
2018,05,22,14,35,24.10
2018,05,22,14,36,24.10
2018,05,22,14,37,24.10
2018,05,22,14,38,24.10
2018,05,22,14,39,24.20
2018,05,22,14,40,24.30
2018,05,22,14,41,24.40
2018,05,22,14,42,24.50
2018,05,22,14,43,24.60
2018,05,22,14,44,24.70
2018,05,22,14,45,24.80
2018,05,22,14,46,24.80
2018,05,22,14,47,24.70
2018,05,22,14,48,24.80
2018,05,22,14,49,24.80
2018,05,22,14,50,24.80
2018,05,22,14,51,24.80
2018,05,22,14,52,24.80
2018,05,22,14,53,24.70
2018,05,22,14,54,24.70
2018,05,22,14,55,24.70
2018,05,22,14,56,24.80
2018,05,22,14,57,24.80
2018,05,22,14,58,24.70
2018,05,22,14,59,24.80
2018,05,22,15,00,24.70
2018,05,22,15,01,24.60
2018,05,22,15,02,24.50
2018,05,22,15,03,24.30
2018,05,22,15,04,24.30
2018,05,22,15,05,24.30
2018,05,22,15,06,24.30
2018,05,22,15,07,24.30
2018,05,22,15,08,24.30
2018,05,22,15,09,24.40
2018,05,22,15,10,24.40
2018,05,22,15,11,24.50
2018,05,22,15,12,24.60
2018,05,22,15,13,24.60
2018,05,22,15,14,24.70
2018,05,22,15,15,24.60
2018,05,22,15,16,24.70
2018,05,22,15,17,24.70
2018,05,22,15,18,24.70
2018,05,22,15,19,24.80
2018,05,22,15,20,24.90
2018,05,22,15,21,24.90
2018,05,22,15,22,25.00
2018,05,22,15,23,25.00
2018,05,22,15,24,24.90
2018,05,22,15,25,25.00
2018,05,22,15,26,24.90
2018,05,22,15,27,24.90
2018,05,22,15,28,25.00
2018,05,22,15,29,25.10
2018,05,22,15,30,25.10
2018,05,22,15,31,25.10
2018,05,22,15,32,24.80
2018,05,22,15,33,24.70
2018,05,22,15,34,24.50
2018,05,22,15,35,24.50
2018,05,22,15,36,24.50
2018,05,22,15,37,24.60
2018,05,22,15,38,24.50
2018,05,22,15,39,24.40
2018,05,22,15,40,24.40
2018,05,22,15,41,24.30
2018,05,22,15,42,24.30
2018,05,22,15,43,24.30
2018,05,22,15,44,24.30
2018,05,22,15,45,24.30
2018,05,22,15,46,24.30
2018,05,22,15,47,24.20
2018,05,22,15,48,24.20
2018,05,22,15,49,24.20
2018,05,22,15,50,24.30
2018,05,22,15,51,24.30
2018,05,22,15,52,24.20
2018,05,22,15,53,24.20
2018,05,22,15,54,24.20
2018,05,22,15,55,24.20
2018,05,22,15,56,24.20
2018,05,22,15,57,24.20
2018,05,22,15,58,24.10
2018,05,22,15,59,24.10
2018,05,22,16,00,24.10
2018,05,22,16,01,24.00
2018,05,22,16,02,23.90
2018,05,22,16,03,23.80
2018,05,22,16,04,23.70
2018,05,22,16,05,23.70
2018,05,22,16,06,23.70
2018,05,22,16,07,23.50
2018,05,22,16,08,23.40
2018,05,22,16,09,23.30
2018,05,22,16,10,23.30
2018,05,22,16,11,23.10
2018,05,22,16,12,23.00
2018,05,22,16,13,22.90
2018,05,22,16,14,22.90
2018,05,22,16,15,22.90
2018,05,22,16,16,22.90
2018,05,22,16,17,22.90
2018,05,22,16,18,22.90
2018,05,22,16,19,22.90
2018,05,22,16,20,22.90
2018,05,22,16,21,22.80
2018,05,22,16,22,22.80
2018,05,22,16,23,22.80
2018,05,22,16,24,22.80
2018,05,22,16,25,22.80
2018,05,22,16,26,22.70
2018,05,22,16,27,22.70
2018,05,22,16,28,22.70
2018,05,22,16,29,22.70
2018,05,22,16,30,22.60
2018,05,22,16,31,22.60
2018,05,22,16,32,22.60
2018,05,22,16,33,22.60
2018,05,22,16,34,22.60
2018,05,22,16,35,22.60
2018,05,22,16,36,22.60
2018,05,22,16,37,22.50
2018,05,22,16,38,22.50
2018,05,22,16,39,22.50
2018,05,22,16,40,22.50
2018,05,22,16,41,22.40
2018,05,22,16,42,22.40
2018,05,22,16,43,22.40
2018,05,22,16,44,22.40
2018,05,22,16,45,22.40
2018,05,22,16,46,22.40
2018,05,22,16,47,22.40
2018,05,22,16,48,22.40
2018,05,22,16,49,22.40
2018,05,22,16,50,22.40
2018,05,22,16,51,22.40
2018,05,22,16,52,22.40
2018,05,22,16,53,22.40
2018,05,22,16,54,22.40
2018,05,22,16,55,22.40
2018,05,22,16,56,22.40
2018,05,22,16,57,22.40
2018,05,22,16,58,22.40
2018,05,22,16,59,22.40
2018,05,22,17,00,22.30
2018,05,22,17,01,22.30
2018,05,22,17,02,22.30
2018,05,22,17,03,22.20
2018,05,22,17,04,22.20
2018,05,22,17,05,22.20
2018,05,22,17,06,22.20
2018,05,22,17,07,22.10
2018,05,22,17,08,22.10
2018,05,22,17,09,22.10
2018,05,22,17,10,22.10
2018,05,22,17,11,22.10
2018,05,22,17,12,22.10
2018,05,22,17,13,22.10
2018,05,22,17,14,22.00
2018,05,22,17,15,22.00
2018,05,22,17,16,22.00
2018,05,22,17,17,22.00
2018,05,22,17,18,22.00
2018,05,22,17,19,22.00
2018,05,22,17,20,21.90
2018,05,22,17,21,21.90
2018,05,22,17,22,22.00
2018,05,22,17,23,22.00
2018,05,22,17,24,22.00
2018,05,22,17,25,22.00